Location: Bremen
(53.0793°N, 8.8017°E)
Time: 12:29:09
(UTC+01:00)

S-56A Canister/Altair - Pass Details

Date: 07 December 2021
Orbit: 634 x 2499 km, 38.9° (Epoch: 25 January)

Event Time Altitude Azimuth Distance (km) Brightness Sun altitude
Rises 21:57:04 0° 207° (SSW) 5,782 11.9 -49.8°
Enters shadow 21:58:16 - 204° (SSW) 5,490 11.8 -49.9°
Reaches altitude 10° 22:02:37 10° 192° (SSW) 4,476 - -50.4°
Maximum altitude 22:09:49 19° 155° (SSE) 3,319 - -51.3°
Drops below altitude 10° 22:15:40 10° 115° (ESE) 3,507 - -51.9°
Sets 22:19:15 0° 97° (E) 4,169 - -52.3°
